| time (UTC) | temp C | wind direction | speed KPH | gust KPH | rain 1hr cm | rain 24hr cm | rain mn cm | humidity % | barometer mb |
| 20260906190923 | 30 | 144 | 1.6 | 4.8 | 0.00 | 0.00 | 0.00 | 64 | 1011.7 |
| 20260906190423 | 30 | 144 | 1.6 | 8.0 | 0.00 | 0.00 | 0.00 | 64 | 1011.6 |
| 20260906185924 | 30 | 146 | 1.6 | 8.0 | 0.00 | 0.00 | 0.00 | 64 | 1011.7 |
| 20260906184923 | 30 | 221 | 0.0 | 1.6 | 0.00 | 0.00 | 0.00 | 65 | 1012.0 |
| 20260906184426 | 30 | 221 | 0.0 | 0.0 | 0.00 | 0.00 | 0.00 | 63 | 1012.1 |
| 20260906183923 | 30 | 221 | 0.0 | 4.8 | 0.00 | 0.00 | 0.00 | 63 | 1012.2 |
| 20260906183423 | 30 | 221 | 0.0 | 3.2 | 0.00 | 0.00 | 0.00 | 63 | 1012.2 |
| 20260906182923 | 30 | 221 | 0.0 | 1.6 | 0.00 | 0.00 | 0.00 | 64 | 1012.2 |
| 20260906182423 | 30 | 221 | 0.0 | 3.2 | 0.00 | 0.00 | 0.00 | 63 | 1012.3 |
| 20260906181922 | 30 | 221 | 1.6 | 4.8 | 0.00 | 0.00 | 0.00 | 63 | 1012.4 |
| 20260906181425 | 30 | 221 | 3.2 | 4.8 | 0.00 | 0.00 | 0.00 | 63 | 1012.5 |
| 20260906180922 | 30 | 220 | 1.6 | 4.8 | 0.00 | 0.00 | 0.00 | 63 | 1012.4 |
| 20260906180423 | 30 | 220 | 4.8 | 8.0 | 0.00 | 0.00 | 0.00 | 64 | 1012.6 |
| 20260906175924 | 30 | 174 | 3.2 | 8.0 | 0.00 | 0.00 | 0.00 | 63 | 1012.7 |
| 20260906175423 | 30 | 172 | 0.0 | 4.8 | 0.00 | 0.00 | 0.00 | 63 | 1012.6 |
| 20260906174923 | 30 | 172 | 4.8 | 11.3 | 0.00 | 0.00 | 0.00 | 62 | 1012.6 |
| 20260906174426 | 30 | 185 | 0.0 | 4.8 | 0.00 | 0.00 | 0.00 | 63 | 1012.6 |
| 20260906173923 | 30 | 185 | 3.2 | 8.0 | 0.00 | 0.00 | 0.00 | 63 | 1012.7 |
| 20260906173423 | 30 | 96 | 1.6 | 9.7 | 0.00 | 0.00 | 0.00 | 64 | 1012.7 |
| 20260906172923 | 30 | 130 | 4.8 | 9.7 | 0.00 | 0.00 | 0.00 | 64 | 1012.7 |
| 20260906172423 | 29 | 147 | 0.0 | 9.7 | 0.00 | 0.00 | 0.00 | 64 | 1012.7 |
| 20260906171923 | 29 | 196 | 1.6 | 4.8 | 0.00 | 0.00 | 0.00 | 64 | 1012.9 |
| 20260906171423 | 29 | 208 | 1.6 | 4.8 | 0.00 | 0.00 | 0.00 | 65 | 1013.1 |
| 20260906170423 | 30 | 224 | 1.6 | 4.8 | 0.00 | 0.00 | 0.00 | 65 | 1013.2 |
| 20260906165925 | 30 | 229 | 3.2 | 8.0 | 0.00 | 0.00 | 0.00 | 64 | 1013.2 |
| 20260906165423 | 30 | 218 | 3.2 | 4.8 | 0.00 | 0.00 | 0.00 | 63 | 1013.3 |
| 20260906164923 | 30 | 217 | 3.2 | 8.0 | 0.00 | 0.00 | 0.00 | 63 | 1013.3 |
| 20260906164423 | 30 | 179 | 3.2 | 8.0 | 0.00 | 0.00 | 0.00 | 63 | 1013.2 |
| 20260906163923 | 30 | 126 | 1.6 | 8.0 | 0.00 | 0.00 | 0.00 | 64 | 1013.1 |
| 20260906163423 | 29 | 220 | 3.2 | 4.8 | 0.00 | 0.00 | 0.00 | 64 | 1013.2 |
| 20260906162423 | 28 | 221 | 1.6 | 4.8 | 0.00 | 0.00 | 0.00 | 65 | 1013.3 |
| 20260906161923 | 28 | 221 | 1.6 | 4.8 | 0.00 | 0.00 | 0.00 | 65 | 1013.3 |
| 20260906161423 | 29 | 224 | 1.6 | 4.8 | 0.00 | 0.00 | 0.00 | 63 | 1013.3 |
| 20260906155923 | 29 | 224 | 1.6 | 4.8 | 0.00 | 0.00 | 0.00 | 64 | 1013.4 |
| 20260906154923 | 29 | 224 | 0.0 | 0.0 | 0.00 | 0.00 | 0.00 | 65 | 1013.4 |
| 20260906154423 | 29 | 224 | 0.0 | 0.0 | 0.00 | 0.00 | 0.00 | 67 | 1013.5 |
| 20260906153924 | 28 | 224 | 0.0 | 0.0 | 0.00 | 0.00 | 0.00 | 66 | 1013.6 |
| 20260906153423 | 28 | 224 | 0.0 | 0.0 | 0.00 | 0.00 | 0.00 | 68 | 1013.5 |
| 20260906152925 | 28 | 224 | 0.0 | 0.0 | 0.00 | 0.00 | 0.00 | 67 | 1013.4 |
| 20260906152423 | 28 | 224 | 0.0 | 1.6 | 0.00 | 0.00 | 0.00 | 67 | 1013.4 |
| 20260906151923 | 28 | 224 | 1.6 | 4.8 | 0.00 | 0.00 | 0.00 | 69 | 1013.4 |
| 20260906151425 | 27 | 224 | 1.6 | 4.8 | 0.00 | 0.00 | 0.00 | 70 | 1013.2 |
| 20260906150923 | 27 | 209 | 0.0 | 4.8 | 0.00 | 0.00 | 0.00 | 71 | 1013.3 |
| 20260906150423 | 27 | 205 | 3.2 | 4.8 | 0.00 | 0.00 | 0.00 | 72 | 1013.4 |
| 20260906145925 | 27 | 203 | 1.6 | 4.8 | 0.00 | 0.00 | 0.00 | 72 | 1013.4 |
| 20260906145423 | 27 | 202 | 1.6 | 3.2 | 0.00 | 0.00 | 0.00 | 73 | 1013.2 |
| 20260906144923 | 27 | 203 | 1.6 | 4.8 | 0.00 | 0.00 | 0.00 | 73 | 1013.3 |
| 20260906144424 | 27 | 203 | 3.2 | 8.0 | 0.00 | 0.00 | 0.00 | 74 | 1013.3 |
| 20260906143922 | 27 | 218 | 1.6 | 9.7 | 0.00 | 0.00 | 0.00 | 75 | 1013.3 |
| 20260906143423 | 26 | 198 | 0.0 | 1.6 | 0.00 | 0.00 | 0.00 | 76 | 1013.2 |
| 20260906142925 | 26 | 198 | 0.0 | 0.0 | 0.00 | 0.00 | 0.00 | 76 | 1013.3 |
| 20260906142423 | 26 | 198 | 0.0 | 0.0 | 0.00 | 0.00 | 0.00 | 77 | 1013.4 |
| 20260906141923 | 26 | 198 | 0.0 | 0.0 | 0.00 | 0.00 | 0.00 | 77 | 1013.4 |
| 20260906141425 | 26 | 198 | 0.0 | 4.8 | 0.00 | 0.00 | 0.00 | 77 | 1013.5 |
| 20260906140923 | 26 | 205 | 0.0 | 4.8 | 0.00 | 0.00 | 0.00 | 77 | 1013.2 |
| 20260906140422 | 26 | 207 | 3.2 | 4.8 | 0.00 | 0.00 | 0.00 | 77 | 1013.0 |
| 20260906135925 | 26 | 118 | 1.6 | 4.8 | 0.00 | 0.00 | 0.00 | 78 | 1012.7 |
| 20260906135423 | 26 | 117 | 1.6 | 4.8 | 0.00 | 0.00 | 0.00 | 78 | 1012.7 |
| 20260906134923 | 26 | 119 | 1.6 | 4.8 | 0.00 | 0.00 | 0.00 | 78 | 1012.7 |
| 20260906134424 | 26 | 119 | 1.6 | 8.0 | 0.00 | 0.00 | 0.00 | 78 | 1012.8 |
| 20260906133423 | 26 | 118 | 1.6 | 8.0 | 0.00 | 0.00 | 0.00 | 79 | 1012.8 |
| 20260906132925 | 26 | 116 | 3.2 | 9.7 | 0.00 | 0.00 | 0.00 | 79 | 1012.9 |
| 20260906132423 | 25 | 156 | 1.6 | 8.0 | 0.00 | 0.00 | 0.00 | 79 | 1012.9 |
| 20260906131923 | 25 | 156 | 0.0 | 9.7 | 0.00 | 0.00 | 0.00 | 79 | 1012.8 |
| 20260906131423 | 25 | 157 | 3.2 | 8.0 | 0.00 | 0.00 | 0.00 | 79 | 1012.8 |
| 20260906130923 | 25 | 153 | 3.2 | 8.0 | 0.00 | 0.00 | 0.00 | 80 | 1012.8 |
| 20260906125923 | 25 | 153 | 0.0 | 8.0 | 0.00 | 0.00 | 0.00 | 80 | 1012.7 |
| 20260906125423 | 25 | 153 | 3.2 | 8.0 | 0.00 | 0.00 | 0.00 | 80 | 1012.7 |
| 20260906124923 | 25 | 153 | 3.2 | 9.7 | 0.00 | 0.00 | 0.00 | 80 | 1012.6 |
| 20260906124425 | 25 | 148 | 3.2 | 9.7 | 0.00 | 0.00 | 0.00 | 80 | 1012.5 |
| 20260906123923 | 25 | 144 | 3.2 | 11.3 | 0.00 | 0.00 | 0.00 | 79 | 1012.4 |
| 20260906123423 | 25 | 156 | 1.6 | 8.0 | 0.00 | 0.00 | 0.00 | 79 | 1012.4 |
| 20260906122423 | 25 | 157 | 1.6 | 4.8 | 0.00 | 0.00 | 0.00 | 79 | 1012.2 |
| 20260906121923 | 25 | 157 | 0.0 | 0.0 | 0.00 | 0.00 | 0.00 | 79 | 1012.2 |
| 20260906121433 | 25 | 0 | 0.0 | 0.0 | 0.00 | 0.00 | 0.00 | 78 | 1012.1 |
| 20260906120922 | 25 | 157 | 0.0 | 3.2 | 0.00 | 0.00 | 0.00 | 78 | 1012.1 |
| 20260906120421 | 25 | 157 | 0.0 | 1.6 | 0.00 | 0.00 | 0.00 | 78 | 1011.9 |
| 20260906115923 | 25 | 157 | 0.0 | 3.2 | 0.00 | 0.00 | 0.00 | 77 | 1011.9 |
| 20260906115422 | 26 | 157 | 0.0 | 1.6 | 0.00 | 0.00 | 0.00 | 77 | 1011.8 |
| 20260906114921 | 26 | 157 | 0.0 | 3.2 | 0.00 | 0.00 | 0.00 | 77 | 1011.7 |
| 20260906114421 | 26 | 157 | 1.6 | 4.8 | 0.00 | 0.00 | 0.00 | 76 | 1011.7 |
| 20260906113421 | 26 | 157 | 0.0 | 4.8 | 0.00 | 0.00 | 0.00 | 76 | 1011.7 |
| 20260906112926 | 26 | 157 | 1.6 | 4.8 | 0.00 | 0.00 | 0.00 | 76 | 1011.7 |
| 20260906112421 | 26 | 157 | 3.2 | 9.7 | 0.00 | 0.00 | 0.00 | 76 | 1011.6 |
| 20260906111921 | 26 | 157 | 1.6 | 9.7 | 0.00 | 0.00 | 0.00 | 76 | 1011.6 |
| 20260906110922 | 26 | 163 | 1.6 | 9.7 | 0.00 | 0.00 | 0.00 | 76 | 1011.6 |
| 20260906110421 | 26 | 165 | 3.2 | 9.7 | 0.00 | 0.00 | 0.00 | 76 | 1011.6 |
| 20260906105926 | 26 | 146 | 0.0 | 8.0 | 0.00 | 0.00 | 0.00 | 76 | 1011.5 |
| 20260906105421 | 26 | 146 | 3.2 | 9.7 | 0.00 | 0.00 | 0.00 | 75 | 1011.5 |
| 20260906104922 | 26 | 146 | 3.2 | 11.3 | 0.00 | 0.00 | 0.00 | 75 | 1011.6 |
| 20260906103921 | 26 | 129 | 3.2 | 9.7 | 0.00 | 0.00 | 0.00 | 75 | 1011.6 |
| 20260906103421 | 26 | 153 | 3.2 | 9.7 | 0.00 | 0.00 | 0.00 | 75 | 1011.6 |
| 20260906102923 | 26 | 155 | 1.6 | 4.8 | 0.00 | 0.00 | 0.00 | 75 | 1011.6 |
| 20260906101921 | 26 | 156 | 3.2 | 9.7 | 0.00 | 0.00 | 0.00 | 75 | 1011.5 |
| 20260906101426 | 26 | 154 | 4.8 | 11.3 | 0.00 | 0.00 | 0.00 | 75 | 1011.5 |
| 20260906100921 | 26 | 128 | 3.2 | 11.3 | 0.00 | 0.00 | 0.00 | 75 | 1011.4 |
| 20260906100421 | 26 | 139 | 4.8 | 9.7 | 0.00 | 0.00 | 0.00 | 75 | 1011.4 |
| 20260906095924 | 26 | 158 | 3.2 | 8.0 | 0.00 | 0.00 | 0.00 | 76 | 1011.4 |
| 20260906093922 | 26 | 81 | 3.2 | 9.7 | 0.00 | 0.00 | 0.00 | 77 | 1011.3 |
| 20260906093421 | 26 | 108 | 3.2 | 9.7 | 0.00 | 0.00 | 0.00 | 77 | 1011.4 |
| 20260906092926 | 26 | 124 | 1.6 | 9.7 | 0.00 | 0.00 | 0.00 | 77 | 1011.5 |
| 20260906092421 | 26 | 135 | 3.2 | 9.7 | 0.00 | 0.00 | 0.00 | 77 | 1011.5 |
| 20260906091921 | 26 | 140 | 4.8 | 9.7 | 0.00 | 0.00 | 0.00 | 77 | 1011.4 |
| 20260906091423 | 26 | 115 | 3.2 | 11.3 | 0.00 | 0.00 | 0.00 | 77 | 1011.5 |
| 20260906090921 | 26 | 132 | 1.6 | 11.3 | 0.00 | 0.00 | 0.00 | 77 | 1011.5 |
| 20260906090421 | 26 | 126 | 3.2 | 9.7 | 0.00 | 0.00 | 0.00 | 77 | 1011.5 |
| 20260906085924 | 26 | 136 | 6.4 | 12.9 | 0.00 | 0.00 | 0.00 | 77 | 1011.6 |
| 20260906085421 | 26 | 101 | 3.2 | 9.7 | 0.00 | 0.00 | 0.00 | 76 | 1011.6 |
| 20260906084426 | 26 | 112 | 4.8 | 11.3 | 0.00 | 0.00 | 0.00 | 76 | 1011.6 |
| 20260906083921 | 26 | 127 | 3.2 | 8.0 | 0.00 | 0.00 | 0.00 | 76 | 1011.5 |
| 20260906083421 | 26 | 103 | 1.6 | 8.0 | 0.00 | 0.00 | 0.00 | 76 | 1011.5 |
| 20260906082926 | 26 | 73 | 1.6 | 11.3 | 0.00 | 0.00 | 0.00 | 76 | 1011.5 |
| 20260906082421 | 26 | 132 | 4.8 | 12.9 | 0.00 | 0.00 | 0.00 | 76 | 1011.5 |
| 20260906081922 | 26 | 132 | 3.2 | 12.9 | 0.00 | 0.00 | 0.00 | 75 | 1011.5 |
| 20260906081423 | 26 | 118 | 6.4 | 14.5 | 0.00 | 0.00 | 0.00 | 76 | 1011.4 |
| 20260906080921 | 26 | 128 | 4.8 | 14.5 | 0.00 | 0.00 | 0.00 | 76 | 1011.3 |
| 20260906080421 | 26 | 136 | 4.8 | 12.9 | 0.00 | 0.00 | 0.00 | 76 | 1011.3 |
| 20260906075924 | 26 | 130 | 4.8 | 9.7 | 0.00 | 0.00 | 0.00 | 76 | 1011.4 |
| 20260906074921 | 26 | 125 | 3.2 | 11.3 | 0.00 | 0.00 | 0.00 | 76 | 1011.5 |
| 20260906073922 | 26 | 91 | 4.8 | 9.7 | 0.00 | 0.00 | 0.00 | 75 | 1011.4 |
| 20260906073421 | 26 | 117 | 3.2 | 11.3 | 0.00 | 0.00 | 0.00 | 74 | 1011.4 |
| 20260906072925 | 26 | 97 | 6.4 | 11.3 | 0.00 | 0.00 | 0.00 | 73 | 1011.3 |
| 20260906072421 | 27 | 107 | 4.8 | 11.3 | 0.00 | 0.00 | 0.00 | 73 | 1011.2 |
| 20260906071921 | 27 | 94 | 4.8 | 11.3 | 0.00 | 0.00 | 0.00 | 73 | 1011.2 |
| 20260906070921 | 27 | 128 | 3.2 | 11.3 | 0.00 | 0.00 | 0.00 | 73 | 1011.1 |
| 20260906065421 | 26 | 122 | 6.4 | 9.7 | 0.00 | 0.00 | 0.00 | 74 | 1011.4 |
| 20260906064921 | 26 | 91 | 4.8 | 11.3 | 0.00 | 0.00 | 0.00 | 75 | 1011.4 |
| 20260906064425 | 26 | 95 | 4.8 | 11.3 | 0.00 | 0.00 | 0.00 | 75 | 1011.4 |
| 20260906063921 | 26 | 112 | 4.8 | 11.3 | 0.00 | 0.00 | 0.00 | 75 | 1011.4 |
| 20260906063421 | 26 | 89 | 3.2 | 11.3 | 0.00 | 0.00 | 0.00 | 76 | 1011.4 |
| 20260906062921 | 26 | 103 | 4.8 | 12.9 | 0.00 | 0.00 | 0.00 | 76 | 1011.5 |
| 20260906062421 | 26 | 120 | 4.8 | 11.3 | 0.00 | 0.00 | 0.00 | 76 | 1011.4 |
| 20260906061921 | 26 | 93 | 3.2 | 11.3 | 0.00 | 0.00 | 0.00 | 76 | 1011.4 |
| 20260906061425 | 26 | 112 | 4.8 | 11.3 | 0.00 | 0.00 | 0.00 | 75 | 1011.4 |
| 20260906060921 | 26 | 94 | 3.2 | 8.0 | 0.00 | 0.00 | 0.00 | 75 | 1011.5 |
| 20260906060421 | 27 | 109 | 8.0 | 16.1 | 0.00 | 0.00 | 0.00 | 74 | 1011.6 |
| 20260906054921 | 27 | 121 | 3.2 | 9.7 | 0.00 | 0.00 | 0.00 | 73 | 1011.6 |
| 20260906054423 | 27 | 112 | 3.2 | 9.7 | 0.00 | 0.00 | 0.00 | 72 | 1011.6 |
| 20260906053921 | 27 | 98 | 3.2 | 9.7 | 0.00 | 0.00 | 0.00 | 72 | 1011.6 |
| 20260906052923 | 27 | 69 | 3.2 | 12.9 | 0.00 | 0.00 | 0.00 | 72 | 1011.5 |
| 20260906052421 | 27 | 106 | 4.8 | 9.7 | 0.00 | 0.00 | 0.00 | 71 | 1011.6 |
| 20260906051921 | 27 | 117 | 3.2 | 9.7 | 0.00 | 0.00 | 0.00 | 71 | 1011.5 |
| 20260906051422 | 27 | 123 | 3.2 | 8.0 | 0.00 | 0.00 | 0.00 | 70 | 1011.5 |
| 20260906050921 | 27 | 123 | 1.6 | 4.8 | 0.00 | 0.00 | 0.00 | 70 | 1011.5 |
| 20260906050421 | 27 | 123 | 3.2 | 4.8 | 0.00 | 0.00 | 0.00 | 70 | 1011.6 |
| 20260906045421 | 28 | 123 | 1.6 | 8.0 | 0.00 | 0.00 | 0.00 | 69 | 1011.4 |
| 20260906044921 | 28 | 123 | 1.6 | 8.0 | 0.00 | 0.00 | 0.00 | 69 | 1011.3 |
| 20260906044425 | 28 | 125 | 3.2 | 8.0 | 0.00 | 0.00 | 0.00 | 69 | 1011.3 |
| 20260906043921 | 28 | 128 | 4.8 | 8.0 | 0.00 | 0.00 | 0.00 | 68 | 1011.3 |
| 20260906042923 | 28 | 130 | 1.6 | 8.0 | 0.00 | 0.00 | 0.00 | 68 | 1011.4 |
| 20260906042421 | 28 | 131 | 3.2 | 8.0 | 0.00 | 0.00 | 0.00 | 67 | 1011.3 |
| 20260906041422 | 29 | 131 | 0.0 | 4.8 | 0.00 | 0.00 | 0.00 | 65 | 1011.3 |
| 20260906035923 | 29 | 132 | 1.6 | 4.8 | 0.00 | 0.00 | 0.00 | 64 | 1011.2 |
| 20260906035421 | 29 | 132 | 0.0 | 3.2 | 0.00 | 0.00 | 0.00 | 63 | 1011.3 |
| 20260906034922 | 30 | 132 | 1.6 | 4.8 | 0.00 | 0.00 | 0.00 | 63 | 1011.3 |
| 20260906033921 | 30 | 131 | 1.6 | 4.8 | 0.00 | 0.00 | 0.00 | 61 | 1011.3 |
| 20260906033421 | 30 | 132 | 0.0 | 0.0 | 0.00 | 0.00 | 0.00 | 61 | 1011.2 |
| 20260906032923 | 30 | 132 | 0.0 | 3.2 | 0.00 | 0.00 | 0.00 | 61 | 1011.2 |
| 20260906032421 | 30 | 132 | 1.6 | 4.8 | 0.00 | 0.00 | 0.00 | 61 | 1011.2 |
| 20260906031921 | 30 | 132 | 0.0 | 8.0 | 0.00 | 0.00 | 0.00 | 60 | 1011.1 |
| 20260906031422 | 30 | 134 | 3.2 | 8.0 | 0.00 | 0.00 | 0.00 | 60 | 1011.1 |
| 20260906030921 | 30 | 151 | 1.6 | 8.0 | 0.00 | 0.00 | 0.00 | 61 | 1010.9 |
| 20260906025925 | 30 | 152 | 1.6 | 4.8 | 0.00 | 0.00 | 0.00 | 60 | 1010.6 |
| 20260906025421 | 30 | 147 | 3.2 | 8.0 | 0.00 | 0.00 | 0.00 | 61 | 1010.6 |
| 20260906024921 | 30 | 143 | 1.6 | 8.0 | 0.00 | 0.00 | 0.00 | 61 | 1010.6 |
| 20260906024425 | 30 | 143 | 1.6 | 8.0 | 0.00 | 0.00 | 0.00 | 61 | 1010.5 |
| 20260906023921 | 30 | 143 | 0.0 | 3.2 | 0.00 | 0.00 | 0.00 | 61 | 1010.4 |
| 20260906023421 | 30 | 143 | 3.2 | 9.7 | 0.00 | 0.00 | 0.00 | 61 | 1010.3 |
| 20260906022921 | 30 | 167 | 3.2 | 4.8 | 0.00 | 0.00 | 0.00 | 61 | 1010.3 |
| 20260906022421 | 31 | 167 | 3.2 | 4.8 | 0.00 | 0.00 | 0.00 | 61 | 1010.3 |
| 20260906021921 | 31 | 167 | 3.2 | 8.0 | 0.00 | 0.00 | 0.00 | 60 | 1010.2 |
| 20260906021423 | 31 | 182 | 0.0 | 3.2 | 0.00 | 0.00 | 0.00 | 59 | 1010.1 |
| 20260906020421 | 31 | 182 | 1.6 | 4.8 | 0.00 | 0.00 | 0.00 | 58 | 1010.0 |
| 20260906015925 | 31 | 182 | 0.0 | 0.0 | 0.00 | 0.00 | 0.00 | 57 | 1009.9 |
| 20260906015421 | 31 | 182 | 0.0 | 0.0 | 0.00 | 0.00 | 0.00 | 57 | 1009.8 |
| 20260906014922 | 32 | 182 | 0.0 | 0.0 | 0.00 | 0.00 | 0.00 | 56 | 1009.8 |
| 20260906014424 | 32 | 182 | 0.0 | 0.0 | 0.00 | 0.00 | 0.00 | 55 | 1009.8 |
| 20260906012421 | 32 | 182 | 0.0 | 0.0 | 0.00 | 0.00 | 0.00 | 54 | 1009.4 |
| 20260906011422 | 33 | 182 | 0.0 | 3.2 | 0.00 | 0.00 | 0.00 | 53 | 1009.2 |
| 20260906010921 | 33 | 182 | 0.0 | 1.6 | 0.00 | 0.00 | 0.00 | 52 | 1009.1 |
| 20260906010421 | 33 | 182 | 0.0 | 3.2 | 0.00 | 0.00 | 0.00 | 51 | 1009.1 |
| 20260906005922 | 33 | 182 | 0.0 | 4.8 | 0.00 | 0.00 | 0.00 | 51 | 1009.1 |
| 20260906005421 | 33 | 182 | 0.0 | 4.8 | 0.00 | 0.00 | 0.00 | 51 | 1009.0 |
| 20260906004921 | 33 | 182 | 1.6 | 4.8 | 0.00 | 0.00 | 0.00 | 51 | 1008.9 |
| 20260906003421 | 34 | 182 | 0.0 | 4.8 | 0.00 | 0.00 | 0.00 | 50 | 1009.1 |
| 20260906002421 | 35 | 183 | 0.0 | 1.6 | 0.00 | 0.00 | 0.00 | 49 | 1009.2 |
| 20260906001921 | 35 | 183 | 0.0 | 3.2 | 0.00 | 0.00 | 0.00 | 49 | 1009.2 |
| 20260906001423 | 35 | 183 | 1.6 | 4.8 | 0.00 | 0.00 | 0.00 | 48 | 1009.2 |
| 20260906000922 | 35 | 183 | 0.0 | 4.8 | 0.00 | 0.00 | 0.00 | 48 | 1009.3 |
| 20260905235923 | 35 | 183 | 1.6 | 4.8 | 0.00 | 0.00 | 0.00 | 47 | 1009.3 |
| 20260905234921 | 35 | 202 | 1.6 | 8.0 | 0.00 | 0.00 | 0.00 | 46 | 1009.2 |
| 20260905234421 | 35 | 194 | 4.8 | 11.3 | 0.00 | 0.00 | 0.00 | 46 | 1009.2 |
| 20260905233921 | 35 | 187 | 4.8 | 11.3 | 0.00 | 0.00 | 0.00 | 45 | 1009.1 |
| 20260905233421 | 35 | 205 | 3.2 | 8.0 | 0.00 | 0.00 | 0.00 | 47 | 1009.0 |
| 20260905232421 | 35 | 171 | 4.8 | 9.7 | 0.00 | 0.00 | 0.00 | 47 | 1008.8 |
| 20260905231921 | 35 | 173 | 4.8 | 9.7 | 0.00 | 0.00 | 0.00 | 47 | 1008.8 |
| 20260905231422 | 35 | 173 | 4.8 | 19.3 | 0.00 | 0.00 | 0.00 | 47 | 1008.8 |
| 20260905230921 | 35 | 139 | 4.8 | 12.9 | 0.00 | 0.00 | 0.00 | 47 | 1008.8 |
| 20260905230421 | 36 | 128 | 8.0 | 16.1 | 0.00 | 0.00 | 0.00 | 46 | 1008.8 |
| 20260905224921 | 36 | 135 | 4.8 | 12.9 | 0.00 | 0.00 | 0.00 | 47 | 1008.9 |
| 20260905223921 | 36 | 95 | 4.8 | 9.7 | 0.00 | 0.00 | 0.00 | 47 | 1008.9 |
| 20260905223421 | 36 | 122 | 4.8 | 11.3 | 0.00 | 0.00 | 0.00 | 47 | 1008.9 |
| 20260905222922 | 36 | 109 | 8.0 | 19.3 | 0.00 | 0.00 | 0.00 | 48 | 1008.9 |
| 20260905221922 | 36 | 117 | 3.2 | 19.3 | 0.00 | 0.00 | 0.00 | 47 | 1008.9 |
| 20260905220921 | 36 | 136 | 1.6 | 14.5 | 0.00 | 0.00 | 0.00 | 48 | 1008.8 |
| 20260905215921 | 36 | 161 | 8.0 | 19.3 | 0.00 | 0.00 | 0.00 | 48 | 1008.8 |
| 20260905215422 | 36 | 82 | 3.2 | 12.9 | 0.00 | 0.00 | 0.00 | 48 | 1008.8 |
| 20260905214422 | 36 | 115 | 3.2 | 14.5 | 0.00 | 0.00 | 0.00 | 48 | 1008.8 |
| 20260905213921 | 36 | 147 | 9.7 | 14.5 | 0.00 | 0.00 | 0.00 | 48 | 1008.8 |
| 20260905213421 | 36 | 110 | 8.0 | 19.3 | 0.00 | 0.00 | 0.00 | 49 | 1008.8 |
| 20260905212924 | 36 | 77 | 4.8 | 14.5 | 0.00 | 0.00 | 0.00 | 55 | 1009.0 |
| 20260905212421 | 35 | 53 | 4.8 | 11.3 | 0.00 | 0.00 | 0.00 | 56 | 1009.0 |
| 20260905211922 | 35 | 95 | 9.7 | 19.3 | 0.00 | 0.00 | 0.00 | 55 | 1009.1 |
| 20260905211422 | 35 | 87 | 8.0 | 20.9 | 0.00 | 0.00 | 0.00 | 56 | 1009.2 |
| 20260905210921 | 35 | 57 | 8.0 | 19.3 | 0.00 | 0.00 | 0.00 | 56 | 1009.4 |
| 20260905205924 | 35 | 71 | 8.0 | 22.5 | 0.00 | 0.00 | 0.00 | 55 | 1009.5 |
| 20260905205421 | 35 | 83 | 9.7 | 19.3 | 0.00 | 0.00 | 0.00 | 56 | 1009.6 |
| 20260905204921 | 35 | 60 | 9.7 | 20.9 | 0.00 | 0.00 | 0.00 | 56 | 1009.7 |
| 20260905204424 | 35 | 67 | 9.7 | 20.9 | 0.00 | 0.00 | 0.00 | 56 | 1009.8 |
| 20260905203922 | 35 | 52 | 8.0 | 19.3 | 0.00 | 0.00 | 0.00 | 58 | 1010.0 |
| 20260905203421 | 35 | 100 | 12.9 | 19.3 | 0.00 | 0.00 | 0.00 | 57 | 1010.0 |
| 20260905202924 | 35 | 72 | 9.7 | 19.3 | 0.00 | 0.00 | 0.00 | 57 | 1010.1 |
| 20260905202421 | 35 | 126 | 8.0 | 25.7 | 0.00 | 0.00 | 0.00 | 56 | 1010.2 |
| 20260905201921 | 35 | 39 | 11.3 | 22.5 | 0.00 | 0.00 | 0.00 | 55 | 1010.3 |
| 20260905200921 | 35 | 66 | 9.7 | 20.9 | 0.00 | 0.00 | 0.00 | 55 | 1010.5 |
| 20260905200421 | 35 | 29 | 9.7 | 19.3 | 0.00 | 0.00 | 0.00 | 54 | 1010.6 |
| 20260905195922 | 35 | 66 | 12.9 | 20.9 | 0.00 | 0.00 | 0.00 | 53 | 1010.6 |
| 20260905195421 | 35 | 74 | 8.0 | 19.3 | 0.00 | 0.00 | 0.00 | 54 | 1010.8 |
| 20260905194921 | 35 | 95 | 11.3 | 19.3 | 0.00 | 0.00 | 0.00 | 53 | 1010.8 |
| 20260905194424 | 35 | 54 | 8.0 | 12.9 | 0.00 | 0.00 | 0.00 | 53 | 1010.9 |
| 20260905193421 | 35 | 70 | 11.3 | 19.3 | 0.00 | 0.00 | 0.00 | 53 | 1011.2 |
| 20260905192921 | 35 | 61 | 3.2 | 22.5 | 0.00 | 0.00 | 0.00 | 54 | 1011.3 |
| 20260905191922 | 35 | 90 | 6.4 | 19.3 | 0.00 | 0.00 | 0.00 | 52 | 1011.5 |
| 20260905191424 | 35 | 74 | 9.7 | 24.1 | 0.00 | 0.00 | 0.00 | 51 | 1011.5 |